Location: München
(48.1351°N, 11.5820°E)
Time: 04:08:48
(UTC+02:00)

ISS - Pass Details

Date: 21 May 2021
Orbit: 417 x 422 km, 51.6° (Epoch: 13 June)

Event Time Altitude Azimuth Distance (km) Brightness Sun altitude
Rises 00:31:42 0° 291° (WNW) 2,369 0.5 -21.1°
Reaches altitude 10° 00:33:48 10° 294° (WNW) 1,504 -0.5 -21.2°
Enters shadow 00:37:08 68° 12° (NNE) 457 -3.5 -21.3°
